Find Starlink 11492

NORAD ID: 62224 Int'l Des: 2024-231 Owner: SPXS Country: US Constellation: starlink operational
LEOCIRCULAR

Live-Position

3D-Globus wird geladen...

Über Starlink 11492

Beschreibung wird geladen...

Nächste Überflüge

Passes for default location (London). Set your location on the main map for personalized predictions.

Höhenverlauf

Loading altitude history...

Zweizeiliger Elementsatz

1 62224U 24231G 26127.10873637 .00161389 00000-0 13071-2 0 9993
2 62224 53.1567 173.5292 0001023 98.5547 261.5586 15.69785968 82588
Epoch: 7. Mai 2026 • Age: 6 hours

Aktueller Status

Höhe 364.1 km
Geschwindigkeit 7.69 km/s
Subsatellitenpunkt -16.62°S, 164.74°E
Startdatum 5. Dez. 2024
Alter 1.4 years
Typ internet

Technische Details

Klassifizierung Payload
Masse 960.00 kg
Trockenmasse 910.00 kg
Gesamtmasse 960.00 kg
Länge 0.30 m
Durchmesser 4.10 m
Spannweite 29.00 m
Form Box + pan
Hersteller SPXS
Bus-Typ Starlink V2MD
Phasenstatus In Orbit
Besitzer/Staat SPXS/US

Most Searched